012  
AXUS43 KGID 011802  
MISGRI  
 
GID CWA HOURLY WEATHER ROUNDUP  
NATIONAL WEATHER SERVICE HASTINGS NE  
1200 PM CST SUN MAR 01 2015  
 
NOTE: "FAIR" INDICATES FEW OR NO CLOUDS BELOW 12,000 FEET WITH NO  
SIGNIFICANT WEATHER AND/OR OBSTRUCTIONS TO VISIBILITY.  
   
..SOUTH CENTRAL NEBRASKA
 
 
 
CITY SKY/WX TMP DP RH WIND PRES REMARKS  
GRAND ISLAND SUNNY 33 12 41 N8 30.37S WCI 26  
HASTINGS SUNNY 35 12 38 N9 30.35R WCI 28  
KEARNEY SUNNY 34 12 40 N7G20 30.35S WCI 28  
ORD SUNNY 32 11 41 NW10 30.35S WCI 24  
YORK SUNNY 32 16 51 NE6 30.37S WCI 26  
AURORA SUNNY 32 14 47 NE9 30.37R WCI 24  
LEXINGTON SUNNY 32 13 45 NE5 30.34S WCI 27  
HOLDREGE SUNNY 32 14 47 N6 30.34S WCI 27  
HEBRON SUNNY 31 21 67 N6 30.39R WCI 25  
   
..NEBRASKA PANHANDLE
 
 
 
CITY SKY/WX TMP DP RH WIND PRES REMARKS  
CHADRON SUNNY 31 12 45 W14 30.30F WCI 21  
ALLIANCE CLOUDY 28 11 48 NW9 30.26F WCI 19  
SCOTTSBLUFF MOSUNNY 30 13 49 VRB6G17 30.28F WCI 24  
SIDNEY PTSUNNY 27 14 58 N8 30.28R WCI 19  
   
..WESTERN AND NORTH CENTRAL NEBRASKA
 
 
 
CITY SKY/WX TMP DP RH WIND PRES REMARKS  
VALENTINE SUNNY 31 12 45 W15 30.31F WCI 20  
AINSWORTH CLOUDY 30 12 47 W15G23 30.32S WCI 19  
ONEILL SUNNY 31 13 47 W10 30.34S WCI 22  
BROKEN BOW SUNNY 33 13 43 VRB5 30.34R WCI 29  
IMPERIAL N/A 31 11 43 N9G16 30.31R WCI 23  
NORTH PLATTE SUNNY 32 9 38 CALM 30.33S  
MCCOOK SUNNY 35 13 40 N10 30.33S WCI 27  
   
..EASTERN NEBRASKA
 
 
 
CITY SKY/WX TMP DP RH WIND PRES REMARKS  
NORFOLK CLOUDY 32 14 47 NW12 30.35F WCI 23  
SO SIOUX CITY CLOUDY 30 16 56 NW9 30.37F WCI 22  
TEKAMAH MOSUNNY 33 14 45 N9 30.39S WCI 25  
COLUMBUS SUNNY 32 10 40 N10 30.39F WCI 24  
ALBION SUNNY 32 12 43 NW9 30.36S WCI 24  
OMAHA EPPLEY MOSUNNY 32 17 54 N9 30.39S WCI 24  
OFFUTT AFB SUNNY 33 17 53 N6 30.38S WCI 27  
MILLARD SUNNY 31 17 55 N8 30.40R WCI 24  
LINCOLN SUNNY 33 20 58 N7 30.40S WCI 27  
NEBRASKA CITY MOSUNNY 30 18 60 NW8 30.38F WCI 23  
BEATRICE MOSUNNY 29 20 68 W6 30.39S WCI 23  
FALLS CITY MOSUNNY 30 20 66 SW5 30.40F WCI 25  
   
..NORTHERN KANSAS
 
 
 
CITY SKY/WX TMP DP RH WIND PRES REMARKS  
GOODLAND PTSUNNY 27 17 66 N12 30.28R WCI 17  
HILL CITY PTSUNNY 29 18 63 N7 30.37R WCI 22  
NORTON PTCLDY 32 16 51 N5 30.34R WCI 27  
PHILLIPSBURG MOSUNNY 34 18 51 CALM 30.38R  
SMITH CENTER MOSUNNY 30 18 59 N6 30.38S WCI 24  
BELOIT SUNNY 30 21 69 N5 30.39F WCI 25  
HAYS CLOUDY 28 14 54 N7 30.37S WCI 21  
RUSSELL MOSUNNY 29 22 75 N8 30.36F WCI 21  
CONCORDIA MOSUNNY 30 20 66 VRB5 30.39S WCI 25  
SALINA MOSUNNY 31 20 63 NW8 30.42S WCI 23  
TOPEKA PTSUNNY 30 20 66 SW3 30.42F  
 
CLICK HERE TO GO TO PREVIOUS BULLETINS.

The Nexlab NE Page
The Nexlab KS Page Main Text Page